Powrót do katalogu

GLOBALSTAR M031

AktywnyŁącznośćLEO
NORAD 25946·PAYLOAD·🇺🇸 United States

Wystrzelony Oct 18, 1999 z Baikonur Cosmodrome

Loading…

Następne Przeloty (najbliższe 24 godziny)

TLE

ŚwieżeSource: Space-Track

Epoka: Sep 14, 2026, 11:29 UTC

1 25946U 99058D   26257.47899667 -.00000032  00000-0  58903-3 0  9999
2 25946  51.9951 273.5705 0001467  30.2771 115.6536 12.16055967219815

Śledź GLOBALSTAR M031 w czasie rzeczywistym z AllMySat

Download on the App Store